User: anonymous   Login
Location: Chatham
(39.6760°N, 89.7040°W)
Time: 15:16:03
(UTC-05:00)
Language:

NOSS 3-1 (C) - Orbit

View from above orbital plane
View from above orbital plane
View from above satellite
View from above satellite

Ground track
Ground track

The orbit data is extracted from the following two-line orbital elements,

1 26907U 01040C   15170.93243036 0.00000000  00000-0  00000-0 0    06
2 26907  63.4213  88.8191 0303000 357.3796   2.6203 13.41233825    01
Epoch (UTC): 19 June 2015 22:22:41
Eccentricity: 0.0303000
inclination: 63.4213°
perigee height: 878 km
apogee height: 1331 km
right ascension of ascending node: 88.8191°
argument of perigee: 357.3796°
revolutions per day: 13.41233825
mean anomaly at epoch: 2.6203°
orbit number at epoch: 0

The dashed part of the orbit path shows where the satellite is in the earth's shadow,  

DLR